Location: D�derode
(51.8092°N, 10.1065°E)
Time: 05:47:57
(UTC+00:00)

Cosmos 1606 - Pass Details

Date: 01 December 2020
Orbit: 503 x 527 km, 82.5° (Epoch: 23 January)

Event Time Altitude Azimuth Distance (km) Brightness Sun altitude
Rises 16:49:33 0° 205° (SSW) 2,656 7.0 -14.2°
Reaches altitude 10° 16:51:45 10° 211° (SSW) 1,770 6.1 -14.5°
Maximum altitude 16:55:30 45° 286° (WNW) 727 3.8 -15.1°
Drops below altitude 10° 16:59:15 10° 360° (N) 1,776 5.3 -15.6°
Enters shadow 17:01:02 - 6° (N) 2,487 6.0 -15.9°
